Regional Weather Roundup
Issued by NWS

Home | Current Version | Previous Version | Graphics & Text | Print | Product List | Glossary Off
Versions: 1 2 3 4 5 6 7 8 9 10 11 12 13 14 15 16 17 18 19 20 21 22 23 24 25 26 27 28 29 30 31 32 33 34 35 36 37 38 39 40 41 42 43 44 45 46 47 48 49 50

000
ASUS43 KDMX 251608
RWRIA

WEATHER ROUNDUP FOR IOWA
NATIONAL WEATHER SERVICE DES MOINES IA
1100 AM CDT MON JUL 25 2016

NOTE: "FAIR" INDICATES FEW OR NO CLOUDS BELOW 12,000 FEET WITH NO
SIGNIFICANT WEATHER AND/OR OBSTRUCTIONS TO VISIBILITY.

* - THESE STATIONS ARE NOT NWS STATIONS...THUS NOT UNDER NWS
QUALITY CONTROL.  THEY ALSO DO NOT REPORT WEATHER SUCH
AS PRECIPITATION OR FOG.

IAZ001>003-012>014-020>022-031>034-043>046-251700-
   NORTHWEST IOWA

CITY           SKY/WX    TMP DP  RH WIND       PRES   REMARKS
CARROLL *      SUNNY     81  68  65 NW3       30.13R HX  83
CHEROKEE *     SUNNY     79  64  60 CALM      30.14S HX  80
DENISON *      SUNNY     79  64  61 CALM      30.12R HX  81
LE MARS *      SUNNY     81  61  50 S5        30.14F HX  81
SHELDON *      SUNNY     77  64  65 VRB5      30.13S
SIOUX CITY     SUNNY     82  62  50 VRB3      30.14R HX  83
SPENCER        SUNNY     79  61  53 W5        30.14R HX  80
STORM LAKE *   SUNNY     79  64  61 CALM      30.15S HX  81
$$

IAZ055>058-069>071-079>083-090>094-251700-
   SOUTHWEST IOWA

CITY           SKY/WX    TMP DP  RH WIND       PRES   REMARKS
ATLANTIC *     CLOUDY    81  66  61 VRB3      30.13R HX  83
CLARINDA *       N/A     79  68  69 MISG      30.15R HX  81
COUNCIL BLFS * SUNNY     79  66  65 VRB3      30.14S HX  81
CRESTON *      PTSUNNY   79  66  65 VRB7      30.14S HX  81
HARLAN  *      SUNNY     81  66  61 CALM      30.16F HX  83
LAMONI         CLOUDY    77  68  73 NE5       30.12R
RED OAK *      MOSUNNY   77  68  73 CALM      30.13S
SHENANDOAH *   PTSUNNY   77  68  73 CALM      30.14R
$$

IAZ047>049-059>061-072>074-084-251700-
   CENTRAL IOWA

CITY           SKY/WX    TMP DP  RH WIND       PRES   REMARKS
AMES           SUNNY     81  65  58 MISG      30.10R HX  83
ANKENY *         N/A    N/A N/A N/A MISG        N/A
BOONE *        SUNNY     81  63  54 N6        30.10S HX  82
CHARITON *       N/A    N/A N/A N/A MISG        N/A
DES MOINES     PTSUNNY   84  61  45 NE6       30.09R HX  84
GRINNELL*      SUNNY     80  66  64 N7        30.10R HX  82
KNOXVILLE *    CLOUDY    81  63  54 VRB5      30.09R HX  82
MARSHALLTOWN   SUNNY     81  63  54 N7        30.08S HX  82
NEWTON *       SUNNY     81  64  57 N8        30.09S HX  82
PELLA *        CLOUDY    80  65  61 CALM      30.11R HX  82
PERRY *          N/A     80  68  67 CALM      30.11S HX  83
$$

IAZ004>006-015-016-023>025-035-036-251700-
   NORTH CENTRAL IOWA

CITY           SKY/WX    TMP DP  RH WIND       PRES   REMARKS
ALGONA *       SUNNY     79  63  57 W8        30.12S HX  80
ESTHERVILLE    SUNNY     77  64  64 W5        30.12S
FORT DODGE *   SUNNY     79  64  61 N5        30.13R HX  81
MASON CITY     SUNNY     79  63  57 W8        30.12S HX  80
FOREST CITY *    N/A     77  61  57 W6        30.11S
IOWA FALLS *     N/A     80  63  55 NW7       30.11S HX  82
$$

IAZ007>011-017>019-026>030-037>042-050>054-066-251700-
   NORTHEAST IOWA

CITY           SKY/WX    TMP DP  RH WIND       PRES   REMARKS
CEDAR RAPIDS   SUNNY     80  68  66 N6        30.07R HX  83
CHARLES CITY * SUNNY     79  64  61 NW7       30.10S HX  81
CLINTON *      CLOUDY    80  69  69 N10       30.04S HX  83
DECORAH *      SUNNY     77  63  61 VRB7      30.07S
DUBUQUE        SUNNY     78  65  63 N9        30.07R HX  80
MONTICELLO *   SUNNY     81  64  57 NW6       30.06S HX  82
OELWEIN *      SUNNY     79  64  61 NW10      30.09S HX  81
WATERLOO       SUNNY     80  61  52 N10       30.07S HX  81
$$

IAZ064-065-067-068-078-251700-
   EAST CENTRAL IOWA

CITY           SKY/WX    TMP DP  RH WIND       PRES   REMARKS
DAVENPORT      MOSUNNY   80  68  66 NW12      30.04S HX  83
IOWA CITY      SUNNY     82  65  56 NW7       30.06F HX  84
MT. PLEASANT * MOSUNNY   81  70  68 N10       30.05S HX  85
MUSCATINE *    CLOUDY    81  68  65 N12       30.04S HX  83
QUAD CITIES    MOSUNNY   82  65  56 N8        30.02S HX  84
$$

IAZ062-063-075>077-085>089-095>099-251700-
   SOUTHEAST IOWA

CITY           SKY/WX    TMP DP  RH WIND       PRES   REMARKS
BURLINGTON     CLOUDY    78  69  73 N13       30.03R HX  80
FAIRFIELD *    PTSUNNY   77  66  69 N7        30.07R
KEOKUK *       CLOUDY    79  70  73 N7        30.04R HX  81
OSKALOOSA *      N/A     77  69  75 N7        30.09R
CENTERVILLE *    N/A     81  68  65 CALM      30.11R HX  83
OTTUMWA        MOSUNNY   80  67  64 N9        30.08R HX  82
WASHINGTON *   CLOUDY    79  70  73 N8G15     30.07R HX  81
$$

ABBREVIATIONS USED IN REMARKS
   TC - TEMPERATURES IN CELSIUS
  WCI - WIND CHILL INDEX
   HX - HEAT INDEX
  VSB - VISIBILITY
$$





USA.gov is the U.S. government's official web portal to all federal, state and local government web resources and services.